Weather in Grivy

Russia / Pskov Oblast     57°06′43″N   28°18′06″E
temp.,
°C
wind,
m/s
gust,
m/s
humid.,
%
clouds,
%
prec.,
mm/h
press.,
hPa
HPBL,
m
16 may, sun
sun1600:00+11w259797 0.0 100696
03:00+10w259873 0.0 1007127
06:00+9w37945 0.0 1008163
09:00+13w35705 0.0 1009383
12:00+18w234912 0.0 10101141
15:00+21wnw12457 0.0 10101688
18:00+18e2260100 0.0 100979
21:00+15se25747 0.0 1010116
17 may, mon
mon1700:00+12se36925 0.0 1010109
03:00+11ese38956 0.0 1010161
06:00+12se4128991 0.0 1010323
09:00+18se51069100 0.0 1009618
12:00+21sse6859100 0.1 10081523
15:00+19sse4873100 1.0 1009986
18:00+17sw2587100 1.1 1009270
21:00+14nne2595100 2.0 1006144
18 may, tue
tue1800:00+14ne41195100 2.5 1004386
03:00+14ene4999100 4.8 1002336
06:00+15e4129876 2.5 999534
09:00+17se51293100 5.9 999788
12:00+17se61292100 0.8 998915
15:00+18s7128282 1.1 10001113
18:00+16s6128282 0.3 10011033
21:00+15sw4888100 0.3 1003519
19 may, wed
wed1900:00+12w3692100 0.0 1005410
03:00+11wnw269592 0.0 1005342
06:00+10nw3895100 0.0 1005339
09:00+12nnw3686100 0.1 1005495
12:00+12n3795100 2.3 1005499
15:00+12n3795100 2.6 1005484
18:00+11n3796100 0.1 1005358
21:00+12nnw3697100 0.2 1005292
20 may, thu
thu2000:00+11n3797100 0.0 1003271
03:00+11n3798100 0.6 1003266
06:00+11n2599100 6.3 1001294
09:00+11nw2499100 8.8 1001269
12:00+11w4696100 0.5 1002575
15:00+10wsw51096100 1.0 1003736
18:00+10w51296100 1.1 1005772
21:00+10wsw51194100 1.2 1007651